Weather History for KBUF - April, 2014

Change the Weather History Date:

Tuesday, April 8, 2014

  Actual Average Record
Temperature  
Mean Temperature 37 °F 43 °F  
Max Temperature 40 °F 52 °F 75 °F (1991)
Min Temperature 34 °F 34 °F 13 °F (1972)
Degree Days  
Heating Degree Days 28 22  
Month to date heating degree days 199 189  
Since 1 July heating degree days 6483 5894  
Cooling Degree Days 0 0  
Month to date cooling degree days 0 0  
Year to date cooling degree days 0 0  
Moisture  
Dew Point 36 °F    
Average Humidity 90    
Maximum Humidity 100    
Minimum Humidity 79    
Precipitation  
Precipitation 0.39 in 0.11 in 0.92 in (2000)
Month to date precipitation 1.67 0.84  
Year to date precipitation 11.00 9.38  
Snow  
Snow T in 0.10 in 3.40 in (1957)
Month to date snowfall 0.2 1.3  
Since 1 July snowfall 128.9 93.0  
Snow Depth 0.00 in    
Sea Level Pressure  
Sea Level Pressure 29.47 in    
Wind  
Wind Speed 12 mph (WSW)    
Max Wind Speed 23 mph    
Max Gust Speed 29 mph    
Visibility 5 miles    
Events Rain , Snow    
T = Trace of Precipitation, MM = Missing Value Source: NWS Daily Summary

Daily Weather History Graph

Daily Weather History Graph

Search for Another Location

Airport or City:

Trip Planner

Search our weather history database for the weather conditions in past years. The results will help you decide how hot, cold, wet, or windy it might be!

Date:

Astronomy

Apr. 08, 2014 Rise Set
Actual Time 6:44 AM EDT 7:49 PM EDT
Civil Twilight 6:15 AM EDT 8:18 PM EDT
Nautical Twilight 5:41 AM EDT 8:53 PM EDT
Astronomical Twilight 5:05 AM EDT 9:29 PM EDT
Moon 1:32 PM EDT (4/8) 3:05 AM EDT (4/8)
Length of Visible Light 14h 02m
Length of Day
13h 04m
Waxing Gibbous, 62% of the Moon is Illuminated
Apr 8
Waxing Gibbous
Apr 15
Full
Apr 22
Last Quarter
Apr 29
New
May 6
First Quarter

Hourly Weather History & Observations

Time (EDT) Temp. Windchill Dew Point Humidity Pressure Visibility Wind Dir Wind Speed Gust Speed Precip Events Conditions
12:49 AM 39.2 °F 32.5 °F 39.2 °F 100% 29.39 in 5.0 mi NE 10.4 mph - 0.01 in Rain Light Rain
12:54 AM 39.9 °F 32.5 °F 37.9 °F 93% 29.38 in 5.0 mi NE 12.7 mph - 0.01 in Rain Light Rain
1:54 AM 39.0 °F 33.4 °F 37.9 °F 96% 29.36 in 3.0 mi NE 8.1 mph - 0.07 in Rain Light Rain
2:50 AM 39.2 °F 33.6 °F 37.4 °F 93% 29.31 in 3.0 mi NNE 8.1 mph - 0.13 in Rain Rain
2:54 AM 39.0 °F 31.8 °F 37.9 °F 96% 29.31 in 3.0 mi NE 11.5 mph - 0.16 in Rain Rain
3:54 AM 39.0 °F 34.0 °F 37.9 °F 96% 29.31 in 5.0 mi North 6.9 mph - 0.01 in   Overcast
4:54 AM 39.0 °F 34.8 °F 37.0 °F 93% 29.27 in 5.0 mi ENE 5.8 mph - N/A   Overcast
5:54 AM 39.0 °F 36.8 °F 37.9 °F 96% 29.25 in 5.0 mi ENE 3.5 mph - 0.02 in   Overcast
6:51 AM 39.2 °F 35.9 °F 39.2 °F 100% 29.25 in 4.0 mi NW 4.6 mph - 0.01 in Rain Light Rain
6:54 AM 39.9 °F 37.8 °F 39.0 °F 97% 29.27 in 4.0 mi WNW 3.5 mph - 0.01 in Rain Light Rain
7:11 AM 39.9 °F 34.5 °F 39.0 °F 97% 29.26 in 1.2 mi WNW 8.1 mph - 0.00 in Rain Rain
7:29 AM 39.0 °F 31.0 °F 37.0 °F 93% 29.29 in 4.0 mi West 13.8 mph - 0.02 in Rain Light Rain
7:47 AM 37.9 °F 28.5 °F 37.0 °F 97% 29.32 in 1.8 mi West 17.3 mph 24.2 mph 0.02 in Rain Light Rain
7:49 AM 37.4 °F 28.2 °F 35.6 °F 93% 29.32 in 2.0 mi West 16.1 mph 24.2 mph 0.02 in Rain Light Rain
7:54 AM 37.9 °F 28.2 °F 36.0 °F 93% 29.34 in 3.0 mi WNW 18.4 mph 24.2 mph 0.02 in Rain Light Rain
8:10 AM 37.0 °F 28.9 °F 35.1 °F 93% 29.34 in 2.0 mi WNW 12.7 mph - 0.01 in Rain Light Rain
8:54 AM 37.0 °F 28.5 °F 35.1 °F 93% 29.39 in 2.5 mi West 13.8 mph 20.7 mph 0.03 in Rain Light Rain
9:15 AM 36.0 °F 28.0 °F 35.1 °F 97% 29.39 in 4.0 mi WSW 11.5 mph - 0.01 in Rain Light Rain
9:54 AM 36.0 °F 27.1 °F 35.1 °F 97% 29.43 in 4.0 mi SW 13.8 mph - 0.03 in Rain Light Rain
10:54 AM 35.1 °F 25.2 °F 34.0 °F 96% 29.47 in 6.0 mi WSW 16.1 mph - 0.02 in Rain , Snow Light Rain
11:54 AM 37.0 °F 27.7 °F 35.1 °F 93% 29.50 in 4.0 mi WSW 16.1 mph - 0.02 in Rain Light Rain
12:47 PM 36.0 °F 26.3 °F 34.0 °F 93% 29.52 in 7.0 mi SW 16.1 mph - 0.00 in Rain Light Rain
12:54 PM 36.0 °F 26.3 °F 34.0 °F 93% 29.54 in 9.0 mi SW 16.1 mph 24.2 mph 0.00 in Rain Light Rain
1:06 PM 36.0 °F 26.3 °F 34.0 °F 93% 29.53 in 9.0 mi WSW 16.1 mph 23.0 mph 0.00 in Rain Light Rain
1:54 PM 37.0 °F 27.7 °F 35.1 °F 93% 29.57 in 10.0 mi WSW 16.1 mph 25.3 mph 0.00 in Rain Light Rain
2:54 PM 37.0 °F 27.7 °F 35.1 °F 93% 29.59 in 6.0 mi SW 16.1 mph 26.5 mph 0.00 in Rain Light Rain
3:54 PM 39.0 °F 29.3 °F 36.0 °F 89% 29.60 in 5.0 mi SW 19.6 mph 27.6 mph 0.00 in   Mostly Cloudy
4:48 PM 39.2 °F 29.6 °F 35.6 °F 87% 29.60 in 6.0 mi WSW 19.6 mph - N/A   Mostly Cloudy
4:54 PM 39.9 °F 30.2 °F 36.0 °F 86% 29.61 in 7.0 mi SW 20.7 mph - N/A   Mostly Cloudy
5:54 PM 39.0 °F 29.9 °F 35.1 °F 86% 29.63 in 6.0 mi SW 17.3 mph - N/A   Scattered Clouds
6:54 PM 39.0 °F 30.6 °F 34.0 °F 82% 29.66 in 7.0 mi SW 15.0 mph 21.9 mph N/A   Scattered Clouds
7:54 PM 37.0 °F 29.3 °F 33.1 °F 86% 29.69 in 7.0 mi SW 11.5 mph - N/A   Partly Cloudy
8:54 PM 35.1 °F 27.9 °F 32.0 °F 89% 29.72 in 6.0 mi SSW 9.2 mph - N/A   Partly Cloudy
9:54 PM 34.0 °F 26.0 °F 32.0 °F 92% 29.74 in 6.0 mi SSW 10.4 mph - N/A   Scattered Clouds
10:54 PM 34.0 °F 26.0 °F 32.0 °F 92% 29.74 in 6.0 mi SSW 10.4 mph - N/A   Scattered Clouds
11:54 PM 35.1 °F 27.9 °F 32.0 °F 89% 29.75 in 7.0 mi SSW 9.2 mph - N/A   Mostly Cloudy